Time,TemperatureF,DewpointF,PressureIn,WindDirection,WindDirectionDegrees,WindSpeedMPH,WindSpeedGustMPH,Humidity,HourlyPrecipIn,Conditions,Clouds,dailyrainin,SoftwareType,DateUTC
2013-01-24 00:03:00,22.0,11.0,30.14,South,172,1.0,2.0,61,0.00,,,0.00,,2013-01-24 05:03:00,
2013-01-24 00:12:00,22.0,11.0,30.14,South,172,1.0,2.0,61,0.00,,,0.00,,2013-01-24 05:12:00,
2013-01-24 00:22:00,22.0,11.0,30.14,South,172,2.0,4.0,61,0.00,,,0.00,,2013-01-24 05:22:00,
2013-01-24 00:33:00,22.0,11.0,30.15,South,172,2.0,3.0,61,0.00,,,0.00,,2013-01-24 05:33:00,
2013-01-24 00:42:00,22.0,11.0,30.15,South,172,2.0,3.0,61,0.00,,,0.00,,2013-01-24 05:42:00,
2013-01-24 00:52:00,22.0,11.0,30.14,South,172,1.0,4.0,61,0.00,,,0.00,,2013-01-24 05:52:00,
2013-01-24 01:03:00,23.0,12.0,30.16,South,172,1.0,4.0,62,0.00,,,0.00,,2013-01-24 06:03:00,
2013-01-24 01:12:00,23.0,12.0,30.16,South,172,1.0,4.0,62,0.00,,,0.00,,2013-01-24 06:12:00,
2013-01-24 01:22:00,23.0,12.0,30.16,South,173,2.0,7.0,62,0.00,,,0.00,,2013-01-24 06:22:00,
2013-01-24 01:32:00,24.0,13.0,30.17,WNW,301,7.0,17.0,63,0.00,,,0.00,,2013-01-24 06:32:00,
2013-01-24 01:42:00,24.0,13.0,30.17,WNW,301,7.0,17.0,63,0.00,,,0.00,,2013-01-24 06:42:00,
2013-01-24 01:52:00,24.0,13.0,30.19,NW,309,6.0,18.0,62,0.00,,,0.00,,2013-01-24 06:52:00,
2013-01-24 02:03:00,23.0,12.0,30.21,NNW,345,7.0,16.0,62,0.00,,,0.00,,2013-01-24 07:03:00,
2013-01-24 02:12:00,23.0,12.0,30.21,NNW,345,7.0,16.0,62,0.00,,,0.00,,2013-01-24 07:12:00,
2013-01-24 02:23:00,23.0,12.0,30.23,NW,319,7.0,28.0,61,0.00,,,0.00,,2013-01-24 07:23:00,
2013-01-24 02:33:00,22.0,11.0,30.24,NW,317,7.0,17.0,62,0.00,,,0.00,,2013-01-24 07:33:00,
2013-01-24 02:43:00,22.0,11.0,30.24,NW,317,7.0,17.0,62,0.00,,,0.00,,2013-01-24 07:43:00,
2013-01-24 02:52:00,22.0,10.0,30.25,NNW,337,9.0,14.0,60,0.00,,,0.00,,2013-01-24 07:52:00,
2013-01-24 03:02:00,21.0,9.0,30.27,NNW,341,4.0,14.0,58,0.00,,,0.00,,2013-01-24 08:02:00,
2013-01-24 03:12:00,21.0,9.0,30.27,NNW,341,4.0,14.0,58,0.00,,,0.00,,2013-01-24 08:12:00,
2013-01-24 03:23:00,21.0,8.0,30.29,NNW,327,5.0,14.0,57,0.00,,,0.00,,2013-01-24 08:23:00,
2013-01-24 03:33:00,20.0,6.0,30.30,NW,306,8.0,20.0,55,0.00,,,0.00,,2013-01-24 08:33:00,
2013-01-24 03:43:00,20.0,6.0,30.30,NW,306,8.0,20.0,55,0.00,,,0.00,,2013-01-24 08:43:00,
2013-01-24 03:52:00,20.0,6.0,30.31,NNW,342,6.0,16.0,55,0.00,,,0.00,,2013-01-24 08:52:00,
2013-01-24 04:03:00,19.0,6.0,30.32,NNW,341,6.0,17.0,55,0.00,,,0.00,,2013-01-24 09:03:00,
2013-01-24 04:13:00,19.0,6.0,30.32,NNW,341,6.0,17.0,55,0.00,,,0.00,,2013-01-24 09:13:00,
2013-01-24 04:23:00,19.0,6.0,30.32,NW,316,5.0,14.0,55,0.00,,,0.00,,2013-01-24 09:23:00,
2013-01-24 04:33:00,19.0,6.0,30.34,NNW,338,4.0,16.0,57,0.00,,,0.00,,2013-01-24 09:33:00,
2013-01-24 04:43:00,19.0,6.0,30.34,NNW,338,4.0,16.0,57,0.00,,,0.00,,2013-01-24 09:43:00,
2013-01-24 04:52:00,19.0,7.0,30.34,NNW,347,6.0,15.0,59,0.00,,,0.00,,2013-01-24 09:52:00,
2013-01-24 05:03:00,19.0,8.0,30.36,North,2,6.0,23.0,61,0.00,,,0.00,,2013-01-24 10:03:00,
2013-01-24 05:12:00,19.0,8.0,30.36,North,2,6.0,23.0,61,0.00,,,0.00,,2013-01-24 10:12:00,
2013-01-24 05:23:00,19.0,8.0,30.36,North,359,4.0,12.0,61,0.00,,,0.00,,2013-01-24 10:23:00,
2013-01-24 05:33:00,18.0,8.0,30.38,NNW,347,7.0,13.0,63,0.00,,,0.00,,2013-01-24 10:33:00,
2013-01-24 05:43:00,18.0,8.0,30.38,NNW,347,7.0,13.0,63,0.00,,,0.00,,2013-01-24 10:43:00,
2013-01-24 05:52:00,18.0,8.0,30.39,North,359,4.0,14.0,63,0.00,,,0.00,,2013-01-24 10:52:00,
2013-01-24 06:03:00,17.0,6.0,30.39,North,350,4.0,11.0,61,0.00,,,0.00,,2013-01-24 11:03:00,
2013-01-24 06:12:00,17.0,6.0,30.39,North,350,4.0,11.0,61,0.00,,,0.00,,2013-01-24 11:12:00,
2013-01-24 06:23:00,17.0,6.0,30.40,North,349,3.0,10.0,61,0.00,,,0.00,,2013-01-24 11:23:00,
2013-01-24 06:33:00,16.0,4.0,30.42,NNW,333,1.0,8.0,59,0.00,,,0.00,,2013-01-24 11:33:00,
2013-01-24 06:43:00,16.0,4.0,30.42,NNW,333,1.0,8.0,59,0.00,,,0.00,,2013-01-24 11:43:00,
2013-01-24 06:53:00,16.0,4.0,30.42,NNW,342,2.0,9.0,59,0.00,,,0.00,,2013-01-24 11:53:00,
2013-01-24 07:03:00,16.0,4.0,30.44,NNW,345,5.0,11.0,59,0.00,,,0.00,,2013-01-24 12:03:00,
2013-01-24 07:12:00,16.0,4.0,30.44,NNW,345,5.0,11.0,59,0.00,,,0.00,,2013-01-24 12:12:00,
2013-01-24 07:23:00,16.0,4.0,30.45,NNW,344,3.0,9.0,59,0.00,,,0.00,,2013-01-24 12:23:00,
2013-01-24 07:33:00,16.0,5.0,30.46,NNW,339,4.0,7.0,60,0.00,,,0.00,,2013-01-24 12:33:00,
2013-01-24 07:43:00,16.0,5.0,30.46,NNW,339,4.0,7.0,60,0.00,,,0.00,,2013-01-24 12:43:00,
2013-01-24 07:53:00,15.0,4.0,30.47,NNW,340,2.0,4.0,60,0.00,,,0.00,,2013-01-24 12:53:00,
2013-01-24 08:03:00,15.0,4.0,30.48,NW,322,3.0,11.0,61,0.00,,,0.00,,2013-01-24 13:03:00,
2013-01-24 08:13:00,15.0,4.0,30.48,NW,322,3.0,11.0,61,0.00,,,0.00,,2013-01-24 13:13:00,
2013-01-24 08:23:00,15.0,4.0,30.49,NNW,329,3.0,8.0,62,0.00,,,0.00,,2013-01-24 13:23:00,
2013-01-24 08:33:00,15.0,5.0,30.50,NNW,337,2.0,9.0,63,0.00,,,0.00,,2013-01-24 13:33:00,
2013-01-24 08:43:00,15.0,5.0,30.50,NNW,337,2.0,9.0,63,0.00,,,0.00,,2013-01-24 13:43:00,
2013-01-24 08:53:00,15.0,5.0,30.50,NNW,338,2.0,8.0,63,0.00,,,0.00,,2013-01-24 13:53:00,
2013-01-24 09:03:00,15.0,5.0,30.51,NNW,338,3.0,8.0,63,0.00,,,0.00,,2013-01-24 14:03:00,
2013-01-24 09:12:00,15.0,5.0,30.51,NNW,338,3.0,8.0,63,0.00,,,0.00,,2013-01-24 14:12:00,
2013-01-24 09:23:00,16.0,6.0,30.52,NNW,342,3.0,8.0,63,0.00,,,0.00,,2013-01-24 14:23:00,
2013-01-24 09:33:00,16.0,5.0,30.53,North,352,4.0,9.0,60,0.00,,,0.00,,2013-01-24 14:33:00,
2013-01-24 09:43:00,16.0,5.0,30.53,North,352,4.0,9.0,60,0.00,,,0.00,,2013-01-24 14:43:00,
2013-01-24 09:53:00,17.0,5.0,30.54,NNW,344,4.0,8.0,59,0.00,,,0.00,,2013-01-24 14:53:00,
2013-01-24 10:04:00,18.0,6.0,30.55,NNW,343,3.0,7.0,58,0.00,,,0.00,,2013-01-24 15:04:00,
2013-01-24 10:12:00,18.0,6.0,30.55,NNW,343,3.0,7.0,58,0.00,,,0.00,,2013-01-24 15:12:00,
2013-01-24 10:23:00,18.0,5.0,30.56,North,354,5.0,7.0,57,0.00,,,0.00,,2013-01-24 15:23:00,
2013-01-24 10:33:00,18.0,5.0,30.56,North,354,5.0,7.0,57,0.00,,,0.00,,2013-01-24 15:33:00,
2013-01-24 10:43:00,19.0,4.0,30.57,North,359,5.0,10.0,52,0.00,,,0.00,,2013-01-24 15:43:00,
2013-01-24 10:53:00,19.0,4.0,30.58,North,0,4.0,8.0,51,0.00,,,0.00,,2013-01-24 15:53:00,
2013-01-24 11:04:00,20.0,5.0,30.59,North,1,4.0,7.0,51,0.00,,,0.00,,2013-01-24 16:04:00,
2013-01-24 11:12:00,20.0,5.0,30.59,North,1,4.0,7.0,51,0.00,,,0.00,,2013-01-24 16:12:00,
2013-01-24 11:23:00,20.0,4.0,30.60,North,11,3.0,8.0,48,0.00,,,0.00,,2013-01-24 16:23:00,
2013-01-24 11:33:00,20.0,4.0,30.60,North,0,3.0,8.0,48,0.00,,,0.00,,2013-01-24 16:33:00,
2013-01-24 11:42:00,20.0,4.0,30.60,North,0,3.0,8.0,48,0.00,,,0.00,,2013-01-24 16:42:00,
2013-01-24 12:03:00,21.0,4.0,30.61,North,353,5.0,9.0,47,0.00,,,0.00,,2013-01-24 17:03:00,
2013-01-24 12:12:00,21.0,4.0,30.61,North,353,5.0,9.0,47,0.00,,,0.00,,2013-01-24 17:12:00,
2013-01-24 12:22:00,21.0,4.0,30.61,North,353,5.0,9.0,47,0.00,,,0.00,,2013-01-24 17:22:00,
2013-01-24 12:32:00,21.0,2.0,30.60,North,8,2.0,9.0,43,0.00,,,0.00,,2013-01-24 17:32:00,
2013-01-24 12:42:00,21.0,2.0,30.60,North,8,2.0,9.0,43,0.00,,,0.00,,2013-01-24 17:42:00,
2013-01-24 12:52:00,22.0,3.0,30.59,NNE,14,5.0,8.0,44,0.00,,,0.00,,2013-01-24 17:52:00,
2013-01-24 13:03:00,22.0,3.0,30.58,North,355,4.0,11.0,43,0.00,,,0.00,,2013-01-24 18:03:00,
2013-01-24 13:12:00,22.0,2.0,30.58,North,9,2.0,12.0,41,0.00,,,0.00,,2013-01-24 18:12:00,
2013-01-24 13:22:00,22.0,2.0,30.58,North,9,2.0,12.0,41,0.00,,,0.00,,2013-01-24 18:22:00,
2013-01-24 13:33:00,23.0,3.0,30.58,North,357,4.0,7.0,41,0.00,,,0.00,,2013-01-24 18:33:00,
2013-01-24 13:42:00,23.0,3.0,30.58,North,357,4.0,7.0,41,0.00,,,0.00,,2013-01-24 18:42:00,
2013-01-24 13:53:00,23.0,3.0,30.57,North,359,3.0,7.0,41,0.00,,,0.00,,2013-01-24 18:53:00,
2013-01-24 14:02:00,23.0,1.0,30.55,NNE,33,5.0,10.0,38,0.00,,,0.00,,2013-01-24 19:02:00,
2013-01-24 14:12:00,22.0,0.0,30.54,NNE,23,3.0,7.0,38,0.00,,,0.00,,2013-01-24 19:12:00,
2013-01-24 14:22:00,22.0,0.0,30.54,NNE,23,3.0,7.0,38,0.00,,,0.00,,2013-01-24 19:22:00,
2013-01-24 14:33:00,23.0,2.0,30.54,North,11,3.0,8.0,39,0.00,,,0.00,,2013-01-24 19:33:00,
2013-01-24 14:42:00,22.0,1.0,30.54,NNE,19,3.0,8.0,40,0.00,,,0.00,,2013-01-24 19:42:00,
2013-01-24 14:52:00,22.0,1.0,30.54,NNE,19,3.0,8.0,40,0.00,,,0.00,,2013-01-24 19:52:00,
2013-01-24 15:02:00,23.0,2.0,30.54,NNE,17,4.0,6.0,40,0.00,,,0.00,,2013-01-24 20:02:00,
2013-01-24 15:11:00,23.0,2.0,30.54,NNE,17,3.0,6.0,39,0.00,,,0.00,,2013-01-24 20:11:00,
2013-01-24 15:22:00,23.0,2.0,30.54,NNE,17,3.0,6.0,39,0.00,,,0.00,,2013-01-24 20:22:00,
2013-01-24 15:33:00,23.0,2.0,30.55,NE,44,2.0,8.0,39,0.00,,,0.00,,2013-01-24 20:33:00,
2013-01-24 15:42:00,23.0,2.0,30.55,NE,41,2.0,7.0,39,0.00,,,0.00,,2013-01-24 20:42:00,
2013-01-24 15:52:00,23.0,2.0,30.55,NE,41,2.0,7.0,39,0.00,,,0.00,,2013-01-24 20:52:00,
2013-01-24 16:03:00,23.0,2.0,30.55,NE,42,1.0,5.0,39,0.00,,,0.00,,2013-01-24 21:03:00,
2013-01-24 16:12:00,23.0,2.0,30.55,NE,42,1.0,5.0,39,0.00,,,0.00,,2013-01-24 21:12:00,
2013-01-24 16:22:00,23.0,2.0,30.55,NE,42,1.0,5.0,39,0.00,,,0.00,,2013-01-24 21:22:00,
2013-01-24 16:33:00,23.0,1.0,30.54,NNE,32,2.0,7.0,38,0.00,,,0.00,,2013-01-24 21:33:00,
2013-01-24 16:43:00,23.0,1.0,30.54,NNE,32,2.0,7.0,38,0.00,,,0.00,,2013-01-24 21:43:00,
2013-01-24 16:52:00,23.0,2.0,30.54,NNE,32,1.0,4.0,39,0.00,,,0.00,,2013-01-24 21:52:00,
2013-01-24 17:03:00,23.0,2.0,30.53,NNE,32,2.0,5.0,39,0.00,,,0.00,,2013-01-24 22:03:00,
2013-01-24 17:12:00,23.0,2.0,30.54,NNE,32,1.0,3.0,40,0.00,,,0.00,,2013-01-24 22:12:00,
2013-01-24 17:22:00,23.0,2.0,30.54,NNE,32,1.0,3.0,40,0.00,,,0.00,,2013-01-24 22:22:00,
2013-01-24 17:33:00,22.0,1.0,30.54,NNE,32,3.0,4.0,40,0.00,,,0.00,,2013-01-24 22:33:00,
2013-01-24 17:42:00,22.0,1.0,30.54,NNE,32,3.0,4.0,40,0.00,,,0.00,,2013-01-24 22:42:00,
2013-01-24 17:52:00,22.0,1.0,30.54,NNE,32,2.0,5.0,40,0.00,,,0.00,,2013-01-24 22:52:00,
2013-01-24 18:03:00,22.0,1.0,30.54,NNE,32,2.0,5.0,39,0.00,,,0.00,,2013-01-24 23:03:00,
2013-01-24 18:12:00,22.0,1.0,30.54,NNE,32,2.0,5.0,39,0.00,,,0.00,,2013-01-24 23:12:00,
2013-01-24 18:22:00,22.0,1.0,30.55,NNE,32,2.0,3.0,39,0.00,,,0.00,,2013-01-24 23:22:00,
2013-01-24 18:32:00,21.0,1.0,30.54,NNE,33,1.0,4.0,40,0.00,,,0.00,,2013-01-24 23:32:00,
2013-01-24 18:42:00,21.0,1.0,30.54,NNE,33,1.0,4.0,40,0.00,,,0.00,,2013-01-24 23:42:00,
2013-01-24 18:52:00,21.0,1.0,30.55,NNE,33,1.0,4.0,40,0.00,,,0.00,,2013-01-24 23:52:00,
2013-01-24 19:02:00,21.0,1.0,30.55,NNE,33,1.0,3.0,41,0.00,,,0.00,,2013-01-25 00:02:00,
2013-01-24 19:12:00,21.0,1.0,30.55,NNE,33,1.0,3.0,41,0.00,,,0.00,,2013-01-25 00:12:00,
2013-01-24 19:22:00,21.0,1.0,30.54,NNE,33,3.0,5.0,41,0.00,,,0.00,,2013-01-25 00:22:00,
2013-01-24 19:32:00,20.0,1.0,30.55,NNE,33,2.0,4.0,42,0.00,,,0.00,,2013-01-25 00:32:00,
2013-01-24 19:42:00,20.0,1.0,30.55,NNE,33,2.0,4.0,42,0.00,,,0.00,,2013-01-25 00:42:00,
2013-01-24 19:52:00,20.0,1.0,30.55,NNE,33,2.0,5.0,42,0.00,,,0.00,,2013-01-25 00:52:00,
2013-01-24 20:02:00,20.0,1.0,30.53,NE,34,1.0,5.0,43,0.00,,,0.00,,2013-01-25 01:02:00,
2013-01-24 20:12:00,20.0,1.0,30.53,NE,40,2.0,6.0,43,0.00,,,0.00,,2013-01-25 01:12:00,
2013-01-24 20:22:00,20.0,1.0,30.53,NE,40,2.0,6.0,43,0.00,,,0.00,,2013-01-25 01:22:00,
2013-01-24 20:32:00,20.0,2.0,30.53,NE,40,2.0,5.0,44,0.00,,,0.00,,2013-01-25 01:32:00,
2013-01-24 20:42:00,20.0,2.0,30.53,NE,40,2.0,5.0,44,0.00,,,0.00,,2013-01-25 01:42:00,
2013-01-24 20:52:00,19.0,1.0,30.53,NE,41,4.0,6.0,45,0.00,,,0.00,,2013-01-25 01:52:00,
2013-01-24 21:02:00,19.0,2.0,30.52,NE,42,3.0,5.0,46,0.00,,,0.00,,2013-01-25 02:02:00,
2013-01-24 21:11:00,19.0,2.0,30.52,NE,42,3.0,5.0,46,0.00,,,0.00,,2013-01-25 02:11:00,
2013-01-24 21:22:00,19.0,2.0,30.51,NE,44,3.0,6.0,46,0.00,,,0.00,,2013-01-25 02:22:00,
2013-01-24 21:32:00,19.0,2.0,30.50,NE,46,3.0,6.0,47,0.00,,,0.00,,2013-01-25 02:32:00,
2013-01-24 21:42:00,19.0,3.0,30.50,NE,46,4.0,6.0,48,0.00,,,0.00,,2013-01-25 02:42:00,
2013-01-24 21:52:00,19.0,3.0,30.50,NE,46,4.0,6.0,48,0.00,,,0.00,,2013-01-25 02:52:00,
2013-01-24 22:02:00,19.0,3.0,30.51,NE,50,2.0,7.0,50,0.00,,,0.00,,2013-01-25 03:02:00,
2013-01-24 22:12:00,19.0,3.0,30.50,NE,50,4.0,6.0,50,0.00,,,0.00,,2013-01-25 03:12:00,
2013-01-24 22:22:00,19.0,3.0,30.50,NE,50,4.0,6.0,50,0.00,,,0.00,,2013-01-25 03:22:00,
2013-01-24 22:33:00,19.0,4.0,30.51,NE,51,4.0,6.0,52,0.00,,,0.00,,2013-01-25 03:33:00,
2013-01-24 22:42:00,19.0,4.0,30.51,NE,51,4.0,6.0,52,0.00,,,0.00,,2013-01-25 03:42:00,
2013-01-24 22:52:00,19.0,4.0,30.51,NE,51,2.0,4.0,52,0.00,,,0.00,,2013-01-25 03:52:00,
2013-01-24 23:02:00,19.0,5.0,30.49,NE,52,1.0,5.0,53,0.00,,,0.00,,2013-01-25 04:02:00,
2013-01-24 23:12:00,19.0,5.0,30.49,NE,50,3.0,8.0,53,0.00,,,0.00,,2013-01-25 04:12:00,
2013-01-24 23:22:00,19.0,5.0,30.49,NE,50,3.0,8.0,53,0.00,,,0.00,,2013-01-25 04:22:00,
2013-01-24 23:32:00,19.0,5.0,30.48,ENE,58,3.0,6.0,54,0.00,,,0.00,,2013-01-25 04:32:00,
2013-01-24 23:42:00,19.0,5.0,30.48,ENE,58,3.0,6.0,54,0.00,,,0.00,,2013-01-25 04:42:00,
2013-01-24 23:51:00,19.0,5.0,30.46,ENE,62,2.0,9.0,54,0.00,,,0.00,,2013-01-25 04:51:00,